Location: Bukit Lungun
(2.6833°N, 113.9667°E)
Time: 14:42:12
(UTC+00:00)

ARIANE 5 R/B - Pass Details

Date: 02 March 2021
Orbit: 537 x 36003 km, 7.5° (Epoch: 20 April)

Event Time Altitude Azimuth Distance (km) Brightness Sun altitude
Exits shadow 20:45:55 40° 92° (E) 790 3.5 -27.7°
Drops below altitude 10° 20:48:10 10° 85° (E) 1,888 6.0 -27.1°
Sets 20:50:37 0° 84° (E) 3,194 7.5 -26.5°
